| time (UTC) | temp F | wind direction | speed MPH | gust MPH | rain 1hr in | rain 24hr in | rain mn in | humidity % | barometer mb |
| 20260906151517 | 66 | 5 | 1.0 | 3.0 | 0.01 | 0.15 | 0.12 | 88 | 1016.3 |
| 20260906150052 | 63 | 339 | 2.0 | 5.0 | 0.01 | 0.15 | 0.12 | 82 | 1016.4 |
| 20260906144517 | 65 | 36 | 2.0 | 4.0 | 0.00 | 0.14 | 0.11 | 78 | 1016.5 |
| 20260906143046 | 64 | 62 | 1.0 | 6.0 | 0.00 | 0.14 | 0.11 | 81 | 1016.4 |
| 20260906141506 | 63 | 345 | 1.0 | 8.0 | 0.00 | 0.14 | 0.11 | 81 | 1016.5 |
| 20260906140052 | 62 | 346 | 2.0 | 4.0 | 0.00 | 0.14 | 0.11 | 85 | 1016.5 |
| 20260906134502 | 62 | 16 | 2.0 | 5.0 | 0.00 | 0.14 | 0.11 | 83 | 1016.4 |
| 20260906133105 | 62 | 59 | 1.0 | 3.0 | 0.00 | 0.14 | 0.11 | 83 | 1016.2 |
| 20260906131602 | 62 | 329 | 4.0 | 7.0 | 0.00 | 0.14 | 0.11 | 88 | 1016.3 |
| 20260906130046 | 61 | 336 | 1.0 | 4.0 | 0.00 | 0.14 | 0.11 | 90 | 1016.4 |
| 20260906124603 | 60 | 338 | 2.0 | 4.0 | 0.00 | 0.14 | 0.11 | 90 | 1016.5 |
| 20260906123039 | 61 | 339 | 1.0 | 5.0 | 0.00 | 0.14 | 0.11 | 92 | 1016.5 |
| 20260906121558 | 60 | 329 | 2.0 | 5.0 | 0.00 | 0.14 | 0.11 | 93 | 1016.2 |
| 20260906120027 | 59 | 323 | 1.0 | 5.0 | 0.00 | 0.14 | 0.11 | 94 | 1016.1 |
| 20260906114602 | 59 | 317 | 1.0 | 4.0 | 0.00 | 0.14 | 0.11 | 94 | 1016.0 |
| 20260906113019 | 59 | 327 | 1.0 | 3.0 | 0.00 | 0.14 | 0.11 | 94 | 1015.9 |
| 20260906111556 | 58 | 328 | 1.0 | 4.0 | 0.00 | 0.14 | 0.11 | 94 | 1015.6 |
| 20260906110023 | 58 | 42 | 0.0 | 1.0 | 0.02 | 0.14 | 0.11 | 94 | 1015.5 |
| 20260906104546 | 58 | 42 | 0.0 | 1.0 | 0.02 | 0.14 | 0.11 | 94 | 1015.3 |
| 20260906103058 | 58 | 42 | 0.0 | 2.0 | 0.02 | 0.14 | 0.11 | 94 | 1015.2 |
| 20260906101506 | 58 | 42 | 0.0 | 1.0 | 0.03 | 0.14 | 0.11 | 93 | 1014.9 |
| 20260906100047 | 58 | 42 | 0.0 | 3.0 | 0.01 | 0.12 | 0.09 | 93 | 1014.9 |
| 20260906094605 | 58 | 42 | 1.0 | 2.0 | 0.01 | 0.12 | 0.09 | 94 | 1014.8 |
| 20260906093045 | 58 | 42 | 0.0 | 2.0 | 0.02 | 0.12 | 0.09 | 93 | 1014.7 |
| 20260906091559 | 58 | 42 | 0.0 | 2.0 | 0.02 | 0.11 | 0.08 | 93 | 1014.5 |
| 20260906090043 | 59 | 42 | 0.0 | 2.0 | 0.05 | 0.11 | 0.08 | 93 | 1014.4 |
| 20260906084625 | 59 | 53 | 1.0 | 4.0 | 0.05 | 0.11 | 0.08 | 93 | 1014.5 |
| 20260906083040 | 60 | 38 | 1.0 | 3.0 | 0.04 | 0.10 | 0.07 | 93 | 1014.4 |
| 20260906081601 | 60 | 59 | 0.0 | 3.0 | 0.03 | 0.09 | 0.06 | 94 | 1014.3 |
| 20260906080017 | 60 | 360 | 1.0 | 3.0 | 0.00 | 0.06 | 0.03 | 94 | 1014.2 |
| 20260906074559 | 61 | 319 | 0.0 | 2.0 | 0.01 | 0.06 | 0.03 | 94 | 1013.8 |
| 20260906073016 | 61 | 319 | 0.0 | 2.0 | 0.02 | 0.06 | 0.03 | 94 | 1013.9 |
| 20260906071558 | 61 | 319 | 0.0 | 2.0 | 0.02 | 0.06 | 0.03 | 94 | 1013.7 |
| 20260906070017 | 61 | 318 | 1.0 | 2.0 | 0.02 | 0.06 | 0.03 | 94 | 1013.7 |
| 20260906064550 | 61 | 319 | 2.0 | 4.0 | 0.01 | 0.05 | 0.02 | 93 | 1013.7 |
| 20260906063008 | 61 | 321 | 0.0 | 2.0 | 0.00 | 0.04 | 0.01 | 93 | 1013.7 |
| 20260906061604 | 61 | 323 | 0.0 | 3.0 | 0.00 | 0.04 | 0.01 | 93 | 1013.7 |
| 20260906060006 | 61 | 315 | 1.0 | 3.0 | 0.01 | 0.04 | 0.01 | 93 | 1013.9 |
| 20260906054548 | 61 | 324 | 1.0 | 3.0 | 0.01 | 0.04 | 0.01 | 93 | 1013.7 |
| 20260906053110 | 61 | 312 | 0.0 | 0.0 | 0.01 | 0.04 | 0.01 | 93 | 1013.7 |
| 20260906051541 | 61 | 312 | 0.0 | 1.0 | 0.01 | 0.04 | 0.01 | 93 | 1013.9 |
| 20260906050055 | 61 | 312 | 0.0 | 3.0 | 0.00 | 0.03 | 0.00 | 92 | 1013.9 |
| 20260906044503 | 61 | 312 | 0.0 | 4.0 | 0.00 | 0.03 | 0.00 | 92 | 1013.9 |
| 20260906043052 | 62 | 302 | 0.0 | 5.0 | 0.00 | 0.03 | 0.00 | 92 | 1013.9 |
| 20260906041604 | 62 | 342 | 1.0 | 3.0 | 0.01 | 0.03 | 0.00 | 92 | 1013.9 |
| 20260906040008 | 62 | 28 | 1.0 | 3.0 | 0.01 | 0.03 | 0.03 | 92 | 1013.9 |
| 20260906034520 | 62 | 78 | 0.0 | 1.0 | 0.01 | 0.03 | 0.03 | 92 | 1013.7 |
| 20260906033105 | 62 | 78 | 0.0 | 1.0 | 0.01 | 0.03 | 0.03 | 92 | 1013.6 |
| 20260906031512 | 62 | 78 | 0.0 | 1.0 | 0.00 | 0.02 | 0.02 | 92 | 1013.5 |
| 20260906030058 | 62 | 78 | 0.0 | 2.0 | 0.00 | 0.02 | 0.02 | 92 | 1013.6 |
| 20260906024506 | 62 | 78 | 0.0 | 0.0 | 0.01 | 0.02 | 0.02 | 91 | 1013.6 |
| 20260906023103 | 63 | 78 | 0.0 | 1.0 | 0.01 | 0.02 | 0.02 | 91 | 1013.5 |
| 20260906021502 | 63 | 78 | 0.0 | 1.0 | 0.01 | 0.02 | 0.02 | 91 | 1013.5 |
| 20260906020050 | 63 | 78 | 0.0 | 0.0 | 0.01 | 0.02 | 0.02 | 90 | 1013.3 |
| 20260906014524 | 63 | 78 | 0.0 | 1.0 | 0.00 | 0.01 | 0.01 | 90 | 1013.5 |
| 20260906013042 | 63 | 78 | 0.0 | 2.0 | 0.00 | 0.01 | 0.01 | 89 | 1013.6 |
| 20260906011501 | 63 | 78 | 0.0 | 2.0 | 0.01 | 0.01 | 0.01 | 89 | 1013.7 |
| 20260906010057 | 64 | 78 | 0.0 | 2.0 | 0.01 | 0.01 | 0.01 | 88 | 1013.6 |
| 20260906004557 | 64 | 78 | 0.0 | 1.0 | 0.01 | 0.01 | 0.01 | 87 | 1013.3 |
| 20260906003016 | 64 | 78 | 0.0 | 0.0 | 0.01 | 0.01 | 0.01 | 86 | 1013.2 |
| 20260906001615 | 64 | 78 | 0.0 | 2.0 | 0.00 | 0.00 | 0.00 | 84 | 1013.2 |
| 20260906000013 | 65 | 78 | 0.0 | 2.0 | 0.00 | 0.00 | 0.00 | 82 | 1013.1 |
| 20260905234558 | 65 | 78 | 0.0 | 1.0 | 0.00 | 0.00 | 0.00 | 81 | 1013.1 |
| 20260905233007 | 65 | 78 | 0.0 | 2.0 | 0.00 | 0.00 | 0.00 | 80 | 1012.9 |
| 20260905231552 | 65 | 78 | 1.0 | 3.0 | 0.00 | 0.00 | 0.00 | 80 | 1012.7 |
| 20260905230122 | 66 | 78 | 0.0 | 3.0 | 0.00 | 0.00 | 0.00 | 79 | 1012.6 |
| 20260905224542 | 66 | 78 | 0.0 | 4.0 | 0.00 | 0.00 | 0.00 | 78 | 1012.5 |
| 20260905223056 | 66 | 74 | 1.0 | 4.0 | 0.00 | 0.00 | 0.00 | 78 | 1012.3 |
| 20260905221515 | 66 | 122 | 0.0 | 2.0 | 0.00 | 0.00 | 0.00 | 79 | 1012.3 |
| 20260905220050 | 66 | 122 | 0.0 | 0.0 | 0.00 | 0.00 | 0.00 | 79 | 1012.3 |
| 20260905214604 | 66 | 104 | 1.0 | 3.0 | 0.00 | 0.00 | 0.00 | 78 | 1012.0 |
| 20260905213018 | 66 | 92 | 1.0 | 10.0 | 0.00 | 0.00 | 0.00 | 78 | 1011.8 |
| 20260905211548 | 66 | 94 | 3.0 | 10.0 | 0.00 | 0.00 | 0.00 | 77 | 1011.7 |
| 20260905210104 | 66 | 103 | 2.0 | 9.0 | 0.00 | 0.00 | 0.00 | 78 | 1011.5 |
| 20260905204504 | 68 | 59 | 8.0 | 18.0 | 0.00 | 0.00 | 0.00 | 75 | 1011.5 |
| 20260905203038 | 70 | 88 | 1.0 | 8.0 | 0.00 | 0.00 | 0.00 | 72 | 1011.0 |
| 20260905201608 | 70 | 105 | 3.0 | 10.0 | 0.00 | 0.00 | 0.00 | 71 | 1011.0 |
| 20260905200020 | 72 | 81 | 4.0 | 11.0 | 0.00 | 0.00 | 0.00 | 69 | 1010.6 |
| 20260905194605 | 73 | 197 | 3.0 | 9.0 | 0.00 | 0.00 | 0.00 | 69 | 1010.6 |
| 20260905193021 | 72 | 92 | 3.0 | 8.0 | 0.00 | 0.00 | 0.00 | 71 | 1010.6 |
| 20260905191557 | 73 | 167 | 2.0 | 11.0 | 0.00 | 0.00 | 0.00 | 71 | 1010.6 |
| 20260905190005 | 71 | 130 | 3.0 | 10.0 | 0.00 | 0.00 | 0.00 | 73 | 1010.8 |
| 20260905184551 | 70 | 136 | 1.0 | 6.0 | 0.00 | 0.00 | 0.00 | 74 | 1010.8 |
| 20260905183115 | 71 | 134 | 2.0 | 7.0 | 0.00 | 0.00 | 0.00 | 71 | 1010.7 |
| 20260905181545 | 72 | 58 | 4.0 | 9.0 | 0.00 | 0.00 | 0.00 | 71 | 1010.7 |
| 20260905180005 | 71 | 109 | 3.0 | 12.0 | 0.00 | 0.00 | 0.00 | 71 | 1010.7 |
| 20260905174540 | 72 | 56 | 1.0 | 9.0 | 0.00 | 0.00 | 0.00 | 67 | 1010.6 |
| 20260905173002 | 72 | 100 | 3.0 | 8.0 | 0.00 | 0.00 | 0.00 | 67 | 1010.5 |
| 20260905171536 | 74 | 83 | 2.0 | 8.0 | 0.00 | 0.00 | 0.00 | 64 | 1010.4 |
| 20260905170009 | 72 | 66 | 2.0 | 5.0 | 0.00 | 0.00 | 0.00 | 68 | 1010.5 |
| 20260905164529 | 71 | 87 | 2.0 | 6.0 | 0.00 | 0.00 | 0.00 | 68 | 1010.6 |
| 20260905163104 | 71 | 33 | 2.0 | 8.0 | 0.00 | 0.00 | 0.00 | 69 | 1010.5 |
| 20260905161533 | 72 | 72 | 2.0 | 10.0 | 0.00 | 0.00 | 0.00 | 67 | 1010.5 |
| 20260905160004 | 72 | 26 | 2.0 | 10.0 | 0.00 | 0.00 | 0.00 | 71 | 1010.6 |
| 20260905154527 | 72 | 55 | 2.0 | 11.0 | 0.00 | 0.00 | 0.00 | 71 | 1010.5 |
| 20260905153012 | 74 | 84 | 2.0 | 7.0 | 0.00 | 0.00 | 0.00 | 69 | 1010.6 |